Погода в Локне

Россия / Псковская область     56°49′35″N   30°08′32″E
темп.,
°C
ветер,
м/с
пор.,
м/с
влажн.,
%
обл.,
%
осадки,
мм/ч
давл.,
гПа
погр.,
м
23 октября, сб
сб2300:00+7юз61476100 0.0 9961543
03:00+6ююз51180100 0.1 9961132
06:00+5зюз4996100 1.0 996879
09:00+4зюз5128387 1.1 999818
12:00+6зюз5117396 0.0 10011168
15:00+4зюз51291100 0.2 1003843
18:00+3з41093100 0.8 1005842
21:00+3з51296100 1.6 1007853
24 октября, вс
вс2400:00+3сз5108792 0.5 1011876
03:00+2сз51084100 0.5 10141049
06:00+2ссз51091100 0.2 10161105
09:00+1сз5108597 0.4 1019918
12:00+2сз587894 0.2 10221045
15:00+3сз4867100 0.3 10241414
18:00+1сз3776100 0.1 1026308
21:000зсз278596 0.1 1028228
25 октября, пн
пн2500:00−1з2388100 0.0 102963
03:000юз2484100 0.0 1028123
06:000ююз3981100 0.0 1028254
09:00+2ююз41282100 0.0 1027422
12:00+3юз51379100 0.0 1026477
15:00+6юз5116922 0.0 1025757
18:00+4юз413770 0.0 1024483
21:00+3юз414800 0.0 1023440
26 октября, вт
вт2600:00+2юз413822 0.0 1023420
03:00+2ююз41383100 0.0 1022390
06:00+2ююз41381100 0.0 1020416
09:00+2юз41479100 0.0 1019432
12:00+6юз41169100 0.0 1018502
15:00+7юз4116784 0.0 1017616
18:00+5юз41175100 0.0 1017396
21:00+4юз41181100 0.0 1017379
27 октября, ср
ср2700:00+4юз31086100 0.0 1016341
03:00+4юз31088100 0.4 1015347
06:00+5юз31095100 2.3 1014388
09:00+6зюз31095100 2.4 1014431
12:00+8зюз4888100 0.0 1014628
15:00+8зюз4881100 0.3 1014871
18:00+6з38905 0.1 1015236
21:00+6зсз39940 0.1 1017269